CW4279 Weather Reports


Display with metric or nautical units.
time (UTC)temp
F
wind
direction
speed
MPH
gust
MPH
rain 1hr
in
rain 24hr
in
rain mn
in
humidity
%
barometer
mb
20260904195410 83 53 1.0 2.0 0.00 0.00 0.00 66 1045.0
20260904194904 83 84 2.0 3.0 0.00 0.00 0.00 66 1044.9
20260904194404 83 63 2.0 3.0 0.00 0.00 0.00 67 1045.0
20260904193859 83 114 1.0 6.0 0.00 0.00 0.00 68 1045.2
20260904193354 83 111 2.0 2.0 0.00 0.00 0.00 67 1045.1
20260904192849 82 103 2.0 3.0 0.00 0.00 0.00 70 1045.2
20260904192345 82 108 1.0 1.0 0.00 0.00 0.00 70 1045.2
20260904191842 81 149 1.0 1.0 0.00 0.00 0.00 72 1045.1
20260904191338 80 53 2.0 2.0 0.00 0.00 0.00 70 1045.0
20260904190834 80 66 2.0 5.0 0.00 0.00 0.00 71 1045.0
20260904190330 80 87 1.0 2.0 0.00 0.00 0.00 71 1045.2
20260904185825 80 97 2.0 5.0 0.00 0.00 0.00 72 1045.0
20260904185321 81 44 1.0 3.0 0.00 0.00 0.00 68 1044.9
20260904184821 80 136 1.0 3.0 0.00 0.00 0.00 71 1045.0
20260904184316 80 87 2.0 3.0 0.00 0.00 0.00 72 1045.1
20260904183811 80 171 1.0 2.0 0.00 0.00 0.00 75 1044.9
20260904183306 78 111 0.0 2.0 0.00 0.00 0.00 76 1044.7
20260904182802 78 193 1.0 2.0 0.00 0.00 0.00 76 1044.8
20260904182256 77 65 1.0 2.0 0.00 0.00 0.00 78 1045.0
20260904181752 77 122 1.0 2.0 0.00 0.00 0.00 78 1045.0
20260904181252 77 154 1.0 2.0 0.00 0.00 0.00 79 1045.4
20260904180747 76 163 1.0 2.0 0.00 0.00 0.00 78 1045.2
20260904180243 76 141 0.0 0.0 0.00 0.00 0.00 81 1045.1
20260904175741 74 151 0.0 1.0 0.00 0.00 0.00 83 1045.1
20260904175240 74 62 3.0 3.0 0.00 0.00 0.00 82 1045.2
20260904174735 73 67 1.0 2.0 0.00 0.00 0.00 84 1045.4
20260904174231 72 99 0.0 1.0 0.00 0.00 0.00 87 1045.4
20260904173726 72 168 1.0 2.0 0.00 0.00 0.00 87 1045.3
20260904173227 71 144 0.0 1.0 0.00 0.00 0.00 89 1045.5
20260904172723 71 163 0.0 1.0 0.00 0.00 0.00 92 1045.5
20260904172222 69 200 2.0 2.0 0.00 0.00 0.00 93 1045.5
20260904171718 69 172 1.0 1.0 0.00 0.00 0.00 94 1045.8
20260904171212 68 171 1.0 2.0 0.00 0.00 0.00 95 1045.7
20260904170709 68 143 0.0 1.0 0.00 0.00 0.00 96 1045.6
20260904170204 68 113 1.0 2.0 0.00 0.00 0.00 96 1045.5
20260904165703 68 142 0.0 1.0 0.00 0.00 0.00 96 1045.5
20260904165203 68 107 0.0 1.0 0.00 0.00 0.00 96 1045.3
20260904164657 68 134 0.0 1.0 0.00 0.00 0.00 95 1045.4
20260904164152 68 120 1.0 2.0 0.00 0.00 0.00 93 1045.3
20260904163648 68 123 2.0 3.0 0.00 0.00 0.00 93 1045.4
20260904163138 69 61 2.0 5.0 0.00 0.00 0.00 91 1045.3
20260904162637 69 78 1.0 6.0 0.00 0.00 0.00 90 1045.1
20260904162132 69 130 0.0 1.0 0.00 0.00 0.00 90 1045.1
20260904161627 69 119 0.0 2.0 0.00 0.00 0.00 90 1045.1
20260904161122 69 149 1.0 3.0 0.00 0.00 0.00 90 1045.1
20260904160619 69 136 0.0 1.0 0.00 0.00 0.00 90 1045.1
20260904160114 69 108 0.0 2.0 0.00 0.00 0.00 90 1045.0
20260904155614 69 100 2.0 3.0 0.00 0.00 0.00 90 1045.1
20260904155102 69 134 0.0 2.0 0.00 0.00 0.00 90 1044.9
20260904154556 68 41 1.0 2.0 0.00 0.00 0.00 90 1045.1
20260904154051 68 138 0.0 2.0 0.00 0.00 0.00 91 1045.0
20260904153550 68 130 0.0 2.0 0.00 0.00 0.00 91 1044.9
20260904153047 68 146 1.0 3.0 0.00 0.00 0.00 90 1044.8
20260904152542 68 101 1.0 5.0 0.00 0.00 0.00 90 1044.6
20260904152038 68 157 1.0 2.0 0.00 0.00 0.00 90 1044.7
20260904151533 68 128 1.0 2.0 0.00 0.00 0.00 90 1044.7
20260904151027 68 167 2.0 3.0 0.00 0.00 0.00 91 1044.6
20260904150526 68 126 2.0 3.0 0.00 0.00 0.00 91 1044.8
20260904150021 69 44 1.0 5.0 0.00 0.00 0.00 91 1044.6
20260904145516 69 69 1.0 5.0 0.00 0.00 0.00 91 1044.7
20260904145011 69 97 3.0 3.0 0.00 0.00 0.00 92 1044.5
20260904144507 70 39 1.0 5.0 0.00 0.00 0.00 92 1044.3
20260904144003 70 64 3.0 5.0 0.00 0.00 0.00 92 1044.0
20260904143458 71 41 2.0 2.0 0.00 0.00 0.00 92 1044.2
20260904142955 71 214 2.0 2.0 0.00 0.00 0.00 92 1043.9
20260904142451 71 100 0.0 1.0 0.00 0.00 0.00 93 1043.7
20260904141950 71 83 1.0 2.0 0.00 0.00 0.00 92 1043.5
20260904141445 71 59 2.0 2.0 0.00 0.00 0.00 92 1043.7
20260904140942 71 99 0.0 1.0 0.00 0.00 0.00 92 1043.4
20260904140441 71 94 3.0 5.0 0.00 0.00 0.00 92 1043.5
20260904135941 71 106 0.0 1.0 0.00 0.00 0.00 92 1043.2
20260904135440 71 107 0.0 0.0 0.00 0.00 0.00 92 1043.0
20260904134937 71 107 0.0 0.0 0.00 0.00 0.00 92 1043.3
20260904134436 71 156 1.0 1.0 0.00 0.00 0.00 92 1043.1
20260904133931 71 175 0.0 0.0 0.00 0.00 0.00 93 1042.9
20260904133426 70 107 0.0 0.0 0.00 0.00 0.00 93 1043.1
20260904132922 70 94 2.0 2.0 0.00 0.00 0.00 93 1042.9
20260904132417 70 97 2.0 2.0 0.00 0.00 0.00 93 1043.1
20260904131916 70 107 0.0 1.0 0.00 0.00 0.00 94 1043.0
20260904131412 70 107 1.0 1.0 0.00 0.00 0.00 94 1043.4
20260904130908 70 112 0.0 1.0 0.00 0.00 0.00 94 1042.9
20260904130406 70 113 0.0 1.0 0.00 0.00 0.00 94 1043.2
20260904125901 70 113 0.0 1.0 0.00 0.00 0.00 95 1043.2
20260904125358 70 110 0.0 1.0 0.00 0.00 0.00 94 1043.2
20260904124857 70 110 0.0 0.0 0.00 0.00 0.00 95 1042.9
20260904124354 70 111 0.0 0.0 0.00 0.00 0.00 95 1042.8
20260904123848 69 111 0.0 0.0 0.00 0.00 0.00 95 1042.9
20260904123344 69 111 0.0 0.0 0.00 0.00 0.00 95 1042.8
20260904122839 69 111 0.0 0.0 0.00 0.00 0.00 95 1042.8
20260904122338 69 111 0.0 0.0 0.00 0.00 0.00 95 1042.9
20260904121833 69 111 0.0 0.0 0.00 0.00 0.00 96 1042.7
20260904121330 68 111 0.0 0.0 0.00 0.00 0.00 96 1042.6
20260904120826 68 111 0.0 0.0 0.00 0.00 0.00 96 1042.8
20260904120321 69 111 0.0 0.0 0.00 0.00 0.00 96 1042.6
20260904115816 68 111 0.0 0.0 0.00 0.00 0.00 95 1043.0
20260904115311 69 111 0.0 0.0 0.00 0.00 0.00 95 1042.6
20260904114806 69 111 0.0 1.0 0.00 0.00 0.00 95 1042.5
20260904114300 69 111 0.0 0.0 0.00 0.00 0.00 95 1042.7
20260904113756 69 114 0.0 2.0 0.00 0.00 0.00 95 1042.6
20260904113254 69 116 0.0 0.0 0.00 0.00 0.00 95 1042.2
20260904112749 69 115 0.0 0.0 0.00 0.00 0.00 95 1042.2
20260904112245 69 111 0.0 2.0 0.00 0.00 0.00 94 1042.3
20260904111741 68 154 0.0 1.0 0.00 0.00 0.00 94 1042.2
20260904111236 68 130 0.0 1.0 0.00 0.00 0.00 94 1042.2
20260904110732 68 111 0.0 1.0 0.00 0.00 0.00 94 1042.3
20260904110231 68 110 1.0 2.0 0.00 0.00 0.00 95 1042.1
20260904105726 68 44 1.0 2.0 0.00 0.00 0.00 94 1042.2
20260904105221 68 118 0.0 1.0 0.00 0.00 0.00 94 1042.2
20260904104716 68 131 1.0 3.0 0.00 0.00 0.00 94 1042.3
20260904104211 68 126 0.0 1.0 0.00 0.00 0.00 94 1042.2
20260904103709 68 113 1.0 1.0 0.00 0.00 0.00 94 1042.2
20260904103203 68 102 0.0 1.0 0.00 0.00 0.00 94 1042.6
20260904102659 68 169 0.0 1.0 0.00 0.00 0.00 94 1042.5
20260904102154 68 159 0.0 1.0 0.00 0.00 0.00 94 1042.2
20260904101651 67 136 0.0 2.0 0.00 0.00 0.00 94 1042.3
20260904101146 67 166 2.0 3.0 0.00 0.00 0.00 94 1042.3
20260904100642 67 134 0.0 1.0 0.00 0.00 0.00 94 1042.4
20260904100137 67 140 1.0 2.0 0.00 0.00 0.00 94 1042.3
20260904095637 67 56 3.0 6.0 0.00 0.00 0.00 94 1042.6
20260904095131 66 73 0.0 5.0 0.00 0.00 0.00 94 1042.7
20260904094627 66 118 1.0 2.0 0.00 0.00 0.00 94 1042.9
20260904094121 66 21 3.0 6.0 0.00 0.00 0.00 94 1042.6
20260904093618 66 70 1.0 2.0 0.00 0.00 0.00 94 1042.7
20260904093113 66 174 1.0 6.0 0.00 0.00 0.00 94 1043.0
20260904092609 66 166 0.0 2.0 0.00 0.00 0.00 94 1042.9
20260904092105 66 99 3.0 5.0 0.00 0.00 0.00 94 1043.0
20260904091601 66 55 4.0 5.0 0.00 0.00 0.00 94 1042.8
20260904091100 66 73 4.0 6.0 0.00 0.00 0.00 94 1043.0
20260904090556 66 112 1.0 6.0 0.00 0.00 0.00 94 1043.0
20260904090051 66 127 1.0 3.0 0.00 0.00 0.00 95 1042.8
20260904085546 66 14 2.0 3.0 0.00 0.00 0.00 95 1043.2
20260904085045 66 119 1.0 5.0 0.00 0.00 0.00 96 1042.9
20260904084541 66 130 1.0 2.0 0.00 0.00 0.00 97 1042.8
20260904084038 67 82 1.0 5.0 0.00 0.00 0.00 97 1042.9
20260904083533 67 134 1.0 5.0 0.00 0.00 0.00 98 1042.8
20260904083029 67 74 0.0 2.0 0.00 0.00 0.00 98 1042.7
20260904082524 67 94 1.0 3.0 0.00 0.00 0.00 99 1043.2
20260904082019 68 62 4.0 6.0 0.00 0.00 0.00 99 1042.8
20260904081514 67 31 1.0 2.0 0.00 0.00 0.00 99 1042.6
20260904081010 68 151 2.0 9.0 0.00 0.00 0.00 99 1042.7
20260904080505 70 29 3.0 5.0 0.00 0.00 0.00 99 1042.9
20260904080001 70 129 1.0 2.0 0.00 0.00 0.00 99 1042.0
20260904075457 70 105 0.0 2.0 0.00 0.00 0.00 99 1041.8
20260904074956 70 136 0.0 0.0 0.00 0.00 0.00 99 1041.7
20260904074451 71 139 0.0 1.0 0.00 0.00 0.00 99 1041.7
20260904073946 71 126 0.0 1.0 0.00 0.00 0.00 99 1041.7
20260904073441 71 132 0.0 0.0 0.00 0.00 0.00 99 1041.6
20260904072937 71 132 0.0 0.0 0.00 0.00 0.00 99 1041.5
20260904072432 71 141 0.0 0.0 0.00 0.00 0.00 99 1041.6
20260904071927 72 141 0.0 0.0 0.00 0.00 0.00 99 1041.6
20260904071423 72 141 0.0 0.0 0.00 0.00 0.00 98 1041.6
20260904070912 72 141 0.0 0.0 0.00 0.00 0.00 98 1041.6
20260904070411 72 141 0.0 0.0 0.00 0.00 0.00 98 1041.3
20260904065910 72 142 0.0 0.0 0.00 0.00 0.00 98 1041.4
20260904065407 72 141 0.0 0.0 0.00 0.00 0.00 98 1041.6
20260904064906 72 142 0.0 0.0 0.00 0.00 0.00 98 1041.4
20260904064402 72 142 0.0 0.0 0.00 0.00 0.00 98 1041.6
20260904063857 73 154 0.0 0.0 0.00 0.00 0.00 98 1041.6
20260904063354 73 154 0.0 0.0 0.00 0.00 0.00 98 1041.6
20260904062849 73 154 0.0 0.0 0.00 0.00 0.00 98 1041.8
20260904062345 73 121 0.0 1.0 0.00 0.00 0.00 97 1041.8
20260904061841 73 118 1.0 1.0 0.00 0.00 0.00 97 1041.8
20260904061337 73 138 0.0 0.0 0.00 0.00 0.00 97 1041.6
20260904060832 73 118 0.0 1.0 0.00 0.00 0.00 97 1041.9
20260904060329 73 130 0.0 1.0 0.00 0.00 0.00 96 1041.9
20260904055824 73 128 0.0 0.0 0.00 0.00 0.00 96 1041.8
20260904055319 73 127 0.0 1.0 0.00 0.00 0.00 95 1041.8
20260904054815 73 140 0.0 0.0 0.00 0.00 0.00 95 1041.8
20260904054311 74 128 0.0 2.0 0.00 0.00 0.00 95 1041.8
20260904053806 74 132 0.0 1.0 0.00 0.00 0.00 94 1041.9
20260904053305 74 150 0.0 1.0 0.00 0.00 0.00 94 1041.8
20260904052801 74 154 1.0 1.0 0.00 0.00 0.00 94 1041.7
20260904052258 74 156 0.0 1.0 0.00 0.00 0.00 93 1041.7
20260904051754 74 151 0.0 1.0 0.00 0.00 0.00 93 1041.8
20260904051249 75 108 0.0 1.0 0.00 0.00 0.00 93 1042.0
20260904050744 75 107 0.0 1.0 0.00 0.00 0.00 93 1041.8
20260904050240 75 130 0.0 0.0 0.00 0.00 0.00 92 1042.1
20260904045735 75 130 0.0 1.0 0.00 0.03 0.03 93 1042.1
20260904045230 75 126 2.0 2.0 0.00 0.03 0.03 93 1042.1
20260904044724 75 62 0.0 2.0 0.00 0.03 0.03 93 1042.0
20260904044221 75 134 0.0 2.0 0.00 0.03 0.03 92 1041.9
20260904043717 75 148 2.0 2.0 0.00 0.03 0.03 91 1041.7
20260904043213 76 144 2.0 3.0 0.00 0.03 0.03 91 1041.6
20260904042709 76 145 3.0 3.0 0.00 0.03 0.03 90 1041.6
20260904042205 76 166 2.0 3.0 0.00 0.03 0.03 91 1041.6
20260904041704 76 166 2.0 3.0 0.00 0.03 0.03 91 1041.8
20260904041201 76 156 2.0 2.0 0.00 0.03 0.03 91 1041.5
20260904040656 75 139 3.0 3.0 0.00 0.03 0.03 91 1041.4
20260904040152 75 122 2.0 3.0 0.00 0.03 0.03 91 1041.5
20260904035648 75 148 2.0 3.0 0.00 0.03 0.03 91 1041.4
20260904035143 75 151 2.0 3.0 0.00 0.03 0.03 91 1041.3
20260904034642 75 162 2.0 2.0 0.00 0.03 0.03 91 1041.6
20260904034138 75 165 2.0 2.0 0.00 0.03 0.03 91 1041.3
20260904033633 75 156 3.0 3.0 0.00 0.03 0.03 91 1041.4
20260904033131 75 145 3.0 3.0 0.00 0.03 0.03 91 1041.3
20260904032626 75 150 3.0 5.0 0.00 0.03 0.03 91 1041.4
20260904032125 75 152 3.0 5.0 0.00 0.03 0.03 91 1041.5
20260904031624 75 155 2.0 3.0 0.00 0.03 0.03 91 1041.7
20260904031120 75 149 3.0 3.0 0.00 0.03 0.03 91 1041.6
20260904030616 75 150 2.0 3.0 0.00 0.03 0.03 91 1041.9
20260904030111 75 155 2.0 3.0 0.00 0.03 0.03 91 1042.0
20260904025607 75 161 1.0 3.0 0.00 0.03 0.03 91 1041.9
20260904025102 75 144 2.0 5.0 0.00 0.03 0.03 92 1042.2
20260904024557 74 155 2.0 3.0 0.00 0.03 0.03 92 1041.9
20260904024053 74 147 1.0 2.0 0.00 0.03 0.03 92 1042.0
20260904023549 74 147 2.0 3.0 0.00 0.03 0.03 93 1042.1
20260904023045 74 152 1.0 3.0 0.00 0.03 0.03 93 1041.9
20260904022544 74 139 2.0 2.0 0.00 0.03 0.03 93 1041.9
20260904022041 74 150 0.0 1.0 0.00 0.03 0.03 93 1041.9
20260904021536 74 138 0.0 8.0 0.00 0.03 0.03 93 1041.9
20260904021032 74 136 1.0 2.0 0.00 0.03 0.03 93 1041.8
20260904020526 74 171 1.0 2.0 0.00 0.03 0.03 93 1041.7
20260904020021 74 159 1.0 2.0 0.00 0.03 0.03 93 1041.6
20260904015516 74 136 2.0 2.0 0.00 0.03 0.03 92 1041.6
20260904015015 74 151 2.0 2.0 0.00 0.03 0.03 92 1041.6
20260904014509 74 148 1.0 3.0 0.00 0.03 0.03 92 1041.5
20260904014005 74 141 1.0 2.0 0.00 0.03 0.03 92 1041.5
20260904013501 74 161 1.0 2.0 0.00 0.03 0.03 92 1041.1
20260904012957 74 148 1.0 2.0 0.00 0.03 0.03 92 1041.3
20260904012457 74 153 1.0 2.0 0.00 0.03 0.03 91 1041.3
20260904011950 74 169 2.0 3.0 0.00 0.03 0.03 91 1041.4
20260904011446 75 156 1.0 3.0 0.00 0.03 0.03 91 1041.2
20260904010941 75 168 1.0 3.0 0.00 0.03 0.03 90 1041.2
20260904010437 75 159 2.0 2.0 0.00 0.03 0.03 90 1041.3
20260904005931 75 151 2.0 2.0 0.00 0.03 0.03 90 1041.4
20260904005427 75 146 0.0 5.0 0.00 0.03 0.03 90 1041.5
20260904004922 75 139 0.0 2.0 0.00 0.03 0.03 91 1041.5
20260904004418 75 152 2.0 2.0 0.00 0.03 0.03 90 1041.5
20260904003913 75 185 1.0 2.0 0.00 0.03 0.03 90 1041.3
20260904003409 75 146 0.0 2.0 0.00 0.03 0.03 90 1041.3
20260904002903 75 152 0.0 2.0 0.00 0.03 0.03 90 1041.5
20260904002400 75 153 0.0 2.0 0.00 0.03 0.03 90 1041.5
20260904001859 75 149 0.0 1.0 0.00 0.03 0.03 90 1041.7
20260904001355 76 151 0.0 1.0 0.00 0.03 0.03 90 1041.4
20260904000849 76 153 0.0 1.0 0.00 0.03 0.03 90 1041.4
20260904000348 76 143 1.0 1.0 0.00 0.03 0.03 89 1041.4
20260903235849 75 157 2.0 2.0 0.00 0.03 0.03 89 1041.1
20260903235345 75 156 1.0 1.0 0.00 0.03 0.03 90 1041.3
20260903234844 75 149 0.0 0.0 0.00 0.03 0.03 93 1041.3
20260903234340 75 150 0.0 1.0 0.00 0.03 0.03 93 1040.9
20260903233837 74 154 0.0 1.0 0.00 0.03 0.03 94 1041.1
20260903233332 74 156 0.0 1.0 0.00 0.03 0.03 94 1040.7
20260903232831 75 153 0.0 1.0 0.00 0.03 0.03 94 1041.1
20260903232327 75 151 0.0 1.0 0.00 0.03 0.03 94 1040.9
20260903231826 74 152 1.0 2.0 0.00 0.03 0.03 94 1040.9
20260903231322 74 151 1.0 1.0 0.00 0.03 0.03 95 1040.9
20260903230817 74 154 0.0 2.0 0.00 0.03 0.03 95 1040.7
20260903230312 74 160 1.0 1.0 0.00 0.03 0.03 95 1040.7
20260903225809 73 137 2.0 2.0 0.00 0.03 0.03 95 1040.6
20260903225306 73 157 1.0 2.0 0.00 0.03 0.03 96 1040.7
20260903224801 73 149 0.0 1.0 0.00 0.03 0.03 96 1040.8
20260903224256 73 149 0.0 1.0 0.00 0.03 0.03 95 1040.8
20260903223752 73 152 1.0 2.0 0.00 0.03 0.03 95 1040.7
20260903223250 73 150 1.0 1.0 0.17 0.03 0.03 93 1040.9
20260903222745 75 143 2.0 3.0 0.12 0.02 0.02 88 1041.3
20260903222244 78 164 3.0 5.0 0.00 0.00 0.00 78 1041.2
20260903221739 78 150 2.0 2.0 0.00 0.00 0.00 77 1041.0
20260903221238 80 152 2.0 3.0 0.00 0.00 0.00 72 1041.1
20260903220736 80 157 3.0 3.0 0.00 0.00 0.00 70 1041.2
20260903220231 80 173 1.0 2.0 0.00 0.00 0.00 69 1040.9
20260903215730 80 153 2.0 2.0 0.00 0.00 0.00 69 1040.7
20260903215226 80 157 2.0 3.0 0.00 0.00 0.00 70 1040.8
20260903214723 81 151 2.0 5.0 0.00 0.00 0.00 69 1040.8
20260903214220 81 152 2.0 3.0 0.00 0.00 0.00 68 1040.8
20260903213714 81 151 2.0 3.0 0.00 0.00 0.00 67 1040.9
20260903213210 82 164 3.0 5.0 0.00 0.00 0.00 66 1041.1
20260903212706 82 150 3.0 5.0 0.00 0.00 0.00 64 1041.1
20260903212203 83 145 5.0 6.0 0.00 0.00 0.00 63 1040.9
20260903211701 84 172 4.0 5.0 0.00 0.00 0.00 62 1041.0
20260903211158 85 169 3.0 5.0 0.00 0.00 0.00 62 1040.6
20260903210654 86 147 3.0 3.0 0.00 0.00 0.00 61 1040.8
20260903210149 85 140 3.0 5.0 0.00 0.00 0.00 62 1040.8
20260903205643 86 171 3.0 5.0 0.00 0.00 0.00 60 1041.0
20260903205142 87 152 4.0 5.0 0.00 0.00 0.00 59 1040.6
20260903204638 87 180 3.0 5.0 0.00 0.00 0.00 59 1040.9
20260903204134 87 174 3.0 5.0 0.00 0.00 0.00 59 1041.2
20260903203629 87 171 3.0 6.0 0.00 0.00 0.00 59 1041.2
20260903203124 87 174 3.0 5.0 0.00 0.00 0.00 60 1041.1
20260903202619 87 143 3.0 3.0 0.00 0.00 0.00 60 1041.2
20260903202114 87 179 3.0 5.0 0.00 0.00 0.00 59 1041.2
20260903201609 87 167 3.0 5.0 0.00 0.00 0.00 59 1041.3
20260903201108 88 161 3.0 5.0 0.00 0.00 0.00 59 1041.2
20260903200603 87 158 3.0 5.0 0.00 0.00 0.00 60 1041.0
20260903200058 87 174 3.0 5.0 0.00 0.00 0.00 61 1041.4